COSMOS 1275 DEB

Satellite information

Favourite Embed

Satellite Type and Status

DEBRISIN ORBIT

Key statistics

Satellite COSMOS 1275 DEB at a glance.

Uptime

16045

Days in orbit

Revolutions

≈ 13.8

Per day

Orbit

LEO

Low Earth Orbit

Inclination

83.1

Latest

Satellite identification and parameters

Extended collection of information and parameters for COSMOS 1275 DEB.

Object identification

Identified? True

Debris? True

Object name: COSMOS 1275 DEB

International designator: 1981-053RL

Object number (NORAD): 42148

Object ID (CCSDS): 42148

Country: COMMONWEALTH OF INDEPENDENT STATES (CIS)

Current information (Y/N): Y

RCS size: SMALL

Orbital parameters

Period: 103.987 minutes

Inclination: 83.0915 deg

SMA: 7325.069 km

Apoapsis: 1002.596 km

Periapsis: 891.272 km

RAAN: 137.9381 deg

Eccentricy: 0.0075988

Argument of periapsis: 260.7783 deg

Mean anomaly: 98.4778 deg

Mean motion: 13.84793977 rev/day

Mean motion (dot): 0.00001384 rev/day2

B* drag term: 0.0011886 1/REarth

Two-line elements (TLE)

Creation date: May 4, 2025, 5:21 p.m.

Reference frame: TEME

Reference center: EARTH

Epoch: May 4, 2025, 12:12 a.m. UTC

TLE line 0: 0 COSMOS 1275 DEB

TLE line 1: 1 42148U 81053RL 25124.00892418 .00001384 00000-0 11886-2 0 9994

TLE line 2: 2 42148 83.0915 137.9381 0075988 260.7783 98.4778 13.84793977577065

Live tracking on map

Real-time ground track for satellite COSMOS 1275 DEB.

In-orbit conjunctions

A list of the most updated potential collisions computed for object COSMOS 1275 DEB.

Target Orbit TCA Probability of collision Miss distance Type
CZ-4 DEB SSO 2025-02-05 07:45:15 0.0001097524 141.0 (m) DEBRIS
METEOR 2-11 DEB LEO 2024-11-22 11:13:03 0.0006802108 168.0 (m) DEBRIS

Associated space launch

Navigation satellite providing location information for the Tsiklon-B navigation system

COSMOS 1275 DEB was lifted into orbit during the mission ‘Kosmos-3M | Parus 27’, on board a Kosmos-3M space rocket.

The launch took place on June 4, 1981, 3:41 p.m. from 132/2.

For more information about the launch, click the button.

Launch to space Kosmos-3M | Parus 27
Kosmos-3M | Parus 27

Agency: N/A

Status: Launch Successful

Launch date: June 4, 1981, 3:41 p.m. UTC

Rocket: Kosmos-3M

Launch pad: 132/2

Location: Plesetsk Cosmodrome, Russian Federation

...

Latest news about this satellite

There are no fresh news available about this satellite. Check back as we update our databases every day.


Newsletter sign-up

Weekly statistics, charts and insights to help you stay on top of the space industry.